Home   Weather   Leon   Past weeks

Flag for Mexico Past Weather in Leon, Guanajuato, Mexico — Yesterday and Last 2 Weeks

Now
57 °F

Partly cloudy.


Feels Like: 57 °F
Forecast: 54 / 77 °F
Wind: No wind

Location: Del Bajio / Leon

Current Time: Oct 19, 2018 at 8:26:52 am

Latest Report: Oct 19, 2018 at 6:43 am


Visibility: 8 mi

Pressure: 29.96 "Hg (24.16 "Hg at 1808m altitude)

Humidity: 88%

Dew Point: 54 °F

Location of LeonLocation

Past Weather in Leon — Graph

°F

Leon Temperature Yesterday

Maximum temperature yesterday: 73 °F (at 4:40 pm)
Minimum temperature yesterday: 63 °F (at 12:43 am)
Average temperature yesterday: 67 °F

High & Low Weather Summary for the Past Weeks

 TemperatureHumidityPressure
High81 °F (Oct 5, 4:40 pm)100% (Oct 7, 12:41 am)30.36 "Hg (Oct 7, 12:41 am)
Low50 °F (Oct 10, 4:46 am)30% (Oct 5, 5:41 pm)29.70 "Hg (Oct 8, 3:44 pm)
Average67 °F71%30.09 "Hg
* Reported Oct 4 6:41 am — Oct 19 6:43 am, Leon. Weather by CustomWeather, © 2018

Note: Actual official high and low records may vary slightly from our data, if they occured in-between our weather recording intervals... More about our weather records

Advertising

Leon Weather History for the Previous 24 Hours

Scroll right to see more
 ConditionsComfort  
Time TempWeatherWind HumidityBarometerVisibility
6:43 am
Fri, Oct 19
57 °FPartly cloudy.No wind88%29.96 "Hg8 mi
5:43 am59 °FPassing clouds.No wind77%30.28 "Hg8 mi
4:42 am61 °FPartly cloudy.7 mph72%30.28 "Hg8 mi
12:41 am64 °FPartly cloudy.No wind68%29.94 "Hg8 mi
11:44 pm
Thu, Oct 18
63 °FPartly cloudy.No wind73%30.33 "Hg8 mi
10:41 pm64 °FPartly cloudy.6 mph68%30.33 "Hg8 mi
9:41 pm64 °FPartly cloudy.14 mph68%29.95 "Hg8 mi
8:40 pm64 °FPartly cloudy.5 mph68%30.29 "Hg8 mi
7:50 pm66 °FPartly cloudy.6 mph64%30.26 "Hg8 mi
6:46 pm70 °FPartly sunny.9 mph57%29.88 "Hg10 mi
5:48 pm72 °FPartly sunny.9 mph57%30.24 "Hg10 mi
4:40 pm73 °FPartly sunny.10 mph50%30.24 "Hg10 mi
3:42 pm72 °FPartly sunny.9 mph57%29.89 "Hg10 mi
2:44 pm70 °FPartly sunny.12 mph57%30.28 "Hg10 mi
1:45 pm72 °FPartly sunny.10 mph53%30.30 "Hg10 mi
12:40 pm72 °FPartly sunny.9 mph57%29.93 "Hg10 mi
11:49 am70 °FPartly sunny.9 mph60%30.36 "Hg10 mi
11:07 am68 °FPartly sunny.12 mph60%30.36 "Hg10 mi
9:42 am66 °FBroken clouds.9 mph68%29.96 "Hg10 mi
8:51 am64 °FBroken clouds.13 mph68%30.33 "Hg10 mi
Weather by CustomWeather, © 2018

See weather overview